Theta_e
293 293 292 292 291 291 291 290 290 289 288 288 288 288 288 288 287 287 286 286 286 285 284 284 284 284 284 283 283 283 283 283 285 285 283 281 279 278 277 277 277 276 276
293 292 291 291 290 290 290 289 289 288 288 287 287 286 286 286 286 285 284 284 284 284 283 283 283 283 282 282 282 282 282 281 282 282 281 279 278 277 276 276 276 275 275
292 291 291 291 290 289 289 288 288 287 287 286 286 285 285 285 284 284 283 283 282 282 282 282 282 282 281 281 280 280 280 280 279 279 279 278 277 276 275 275 274 274 274
292 293 292 291 289 289 289 288 287 287 286 285 285 284 284 283 283 283 283 282 281 281 280 280 279 279 279 279 278 278 278 278 278 278 278 277 276 274 274 273 273 273 272
293 292 291 290 289 288 287 287 286 286 285 284 284 283 283 283 283 282 282 281 280 279 278 278 277 277 276 277 277 276 277 277 276 276 276 275 274 273 272 271 271 271 272
293 293 291 289 288 287 286 286 285 285 284 284 284 283 283 282 281 281 281 280 280 279 278 277 276 276 275 275 274 274 274 274 274 274 274 273 272 271 270 270 270 269 270
295 292 290 289 288 286 286 285 284 284 284 284 283 283 283 282 281 280 280 279 279 278 277 276 276 275 274 273 272 271 271 271 271 271 271 271 270 269 269 268 268 268 268
294 292 291 289 288 286 285 284 284 284 284 283 283 282 282 281 280 279 278 278 277 276 276 276 276 275 273 272 272 270 269 269 269 269 269 268 268 268 267 267 267 266 267
294 292 291 290 287 286 285 284 284 283 283 283 282 281 281 281 279 278 277 276 276 275 275 275 275 274 272 271 271 270 269 268 267 268 267 267 266 266 266 265 265 265 266
293 293 291 289 287 286 285 284 283 283 282 282 281 281 280 280 280 278 277 276 275 274 274 273 274 273 272 270 270 270 268 267 267 267 267 266 266 265 264 264 263 263 264
293 291 290 288 287 286 285 283 282 282 281 280 280 279 279 279 278 278 277 276 275 274 273 273 272 273 272 270 269 269 268 267 266 266 266 265 265 264 263 263 262 262 262
291 290 289 287 286 284 283 282 282 281 280 280 279 278 278 278 277 277 276 275 275 274 273 272 271 271 271 269 268 267 267 266 266 265 265 265 264 263 263 262 262 262 262
290 289 287 285 284 283 282 281 281 280 280 279 278 277 276 276 277 276 274 274 273 272 271 271 271 269 269 268 266 266 266 266 265 265 264 263 263 263 262 262 262 262 262
289 287 285 284 282 281 281 281 280 280 280 279 278 277 276 276 276 275 273 272 271 271 271 271 268 267 266 266 265 266 266 265 264 263 263 262 262 262 261 261 260 260 260
286 285 283 282 281 280 281 280 280 280 280 279 278 277 276 275 275 275 273 271 270 270 269 268 267 265 265 265 265 265 265 265 263 262 262 261 261 260 260 260 260 259 260
284 282 282 281 280 280 280 280 280 280 280 279 279 279 277 277 276 275 274 272 271 269 267 266 266 266 266 266 265 265 265 264 262 262 261 261 260 259 259 260 259 259 259
282 282 281 281 280 279 280 280 280 279 279 279 278 278 278 277 275 274 273 271 271 268 267 266 267 266 266 265 265 264 263 263 263 262 261 260 259 259 259 259 259 259 258
281 281 281 280 280 280 280 279 279 278 279 279 278 277 276 275 275 274 273 273 270 269 268 267 266 266 265 265 265 264 263 262 262 262 260 260 259 259 258 258 258 258 258
280 280 280 280 280 280 279 279 278 278 278 277 277 276 275 275 275 275 275 274 272 270 269 267 267 266 266 265 264 263 263 263 261 261 261 260 259 258 258 257 257 257 257
279 279 279 279 279 278 278 278 278 278 277 275 275 275 274 274 275 275 276 274 272 271 269 269 268 266 266 265 264 264 263 262 262 261 261 260 259 258 258 257 257 257 258
277 278 278 278 277 277 277 277 277 277 276 274 274 274 274 273 274 274 274 273 272 271 270 269 268 267 266 266 265 264 263 262 262 261 260 259 259 259 258 258 257 257 257
277 277 277 277 276 276 276 276 276 276 275 274 273 273 274 272 273 273 273 272 272 271 271 270 268 267 267 266 266 264 263 263 262 261 260 260 259 259 258 258 258 257 257
277 276 276 275 275 274 274 274 275 275 274 273 273 272 272 272 272 271 271 271 270 270 269 268 268 267 267 267 266 265 264 264 263 261 261 260 259 259 258 258 258 258 258
275 274 274 274 273 273 273 274 273 273 273 273 272 272 272 272 271 271 270 270 269 269 268 268 268 268 267 267 266 265 265 264 263 262 261 260 259 259 258 258 258 258 258
273 273 273 272 272 271 272 272 272 272 272 272 272 271 272 271 271 270 270 270 269 269 269 269 268 268 267 267 266 266 265 264 263 262 261 260 260 259 258 258 258 258 258
272 271 271 271 271 271 271 271 271 272 272 272 272 271 271 271 271 270 270 269 269 269 269 269 269 268 268 267 267 266 266 265 264 263 262 260 260 259 259 259 259 259 259
Wind_Speed
8 6 6 4 4 4 3 3 2 1 1 2 2 3 4 4 5 6 7 8 8 8 8 9 9 8 8 8 9 9 9 8 4 4 5 8 11 13 16 16 16 17 19
7 6 5 4 4 3 3 3 3 2 2 2 3 3 4 4 5 6 7 8 9 9 8 8 8 6 7 7 7 8 7 7 5 5 6 10 12 13 16 16 19 17 18
8 7 7 6 5 5 5 5 5 4 4 4 5 5 5 5 6 6 7 8 9 9 8 8 8 7 8 7 7 6 6 5 5 5 6 9 11 15 18 18 21 23 23
10 10 10 10 10 9 9 8 7 6 5 4 4 3 4 5 6 7 7 8 8 9 9 9 8 8 7 6 7 6 5 4 5 5 5 9 10 15 13 18 25 25 31
12 11 11 12 11 10 10 9 8 7 5 5 5 5 5 4 5 8 8 8 9 10 9 8 8 10 11 9 6 6 6 5 5 5 6 7 9 14 15 17 18 22 25
14 15 15 15 14 13 11 10 8 8 8 7 6 5 5 4 8 9 9 9 9 8 9 9 7 8 9 11 12 13 11 7 7 5 5 7 9 11 14 17 17 20 9
16 17 19 18 17 15 13 12 10 9 8 7 6 6 5 4 7 9 10 9 8 8 8 8 8 6 5 5 7 8 10 11 9 6 6 6 8 11 14 17 16 15 17
18 19 20 19 18 17 16 15 13 12 12 11 10 9 8 7 8 10 11 10 9 8 8 8 9 7 6 5 4 4 4 5 7 7 5 4 6 9 10 12 13 15 20
21 21 21 21 21 20 20 19 17 16 15 14 13 12 11 9 9 10 8 9 10 9 8 7 7 7 6 7 5 4 2 4 5 4 3 4 6 7 10 12 16 16 11
22 20 20 20 22 21 20 19 19 18 16 15 14 12 11 10 10 10 7 6 8 8 7 8 8 7 6 7 5 3 2 3 3 4 5 6 7 8 8 10 9 10 11
18 17 18 20 20 20 20 20 20 18 17 16 14 13 13 11 12 11 9 6 8 9 8 8 7 7 6 6 5 4 3 2 3 6 6 6 7 8 9 10 8 7 9
15 16 18 18 18 20 21 20 20 20 19 17 16 13 15 12 10 12 10 9 10 11 11 9 8 8 6 5 4 4 3 4 5 5 5 7 8 9 10 11 11 10 11
15 16 17 16 18 19 22 22 21 20 19 19 18 16 16 16 13 10 8 12 12 11 11 10 9 9 8 5 3 2 3 4 4 5 6 7 9 11 12 12 13 13 15
17 18 17 18 20 21 21 23 21 23 20 19 19 17 19 20 17 16 12 13 12 10 12 14 9 6 6 5 3 3 4 5 5 5 7 8 9 10 12 13 16 16 18
19 20 20 20 21 19 20 22 23 23 24 23 23 23 25 23 25 21 17 16 17 17 17 14 10 6 5 4 4 4 5 6 6 8 8 8 8 10 10 12 13 16 14
23 22 20 18 19 18 19 19 18 17 20 20 20 25 25 22 22 20 18 14 14 17 15 12 10 9 7 6 6 6 6 8 8 9 9 9 9 10 12 13 12 14 16
23 19 19 20 22 22 21 20 18 18 17 19 19 18 20 22 21 21 18 15 15 17 11 12 10 9 8 9 8 8 8 10 11 11 11 10 10 11 12 13 13 14 17
22 21 21 23 22 22 23 22 21 22 21 21 19 20 19 19 23 22 19 16 17 17 12 12 11 10 10 10 10 10 10 11 12 11 11 11 12 12 12 12 13 15 18
22 21 21 21 21 23 23 22 22 21 21 20 20 19 20 21 23 22 21 23 21 23 17 15 12 11 12 12 12 12 12 12 13 13 13 13 13 13 13 12 14 15 17
20 20 22 21 21 22 21 21 21 20 21 21 23 22 26 25 25 25 23 25 24 20 17 16 15 13 14 14 14 14 14 14 14 15 15 13 13 13 13 13 13 15 18
19 19 23 21 21 22 23 23 23 22 22 21 22 24 30 30 24 23 23 26 27 25 22 18 16 15 14 15 16 16 16 16 15 15 15 15 14 14 13 14 15 15 17
18 19 23 21 20 21 21 21 21 21 21 21 21 24 23 28 21 22 24 29 28 25 22 20 19 18 18 18 17 17 18 18 16 17 16 15 15 14 14 13 14 16 16
19 19 20 19 19 20 22 21 22 23 23 23 24 28 28 27 27 27 28 26 25 24 23 22 21 21 20 19 19 19 20 19 16 16 16 16 15 14 13 13 14 16 17
19 19 19 19 20 20 21 21 22 24 24 25 26 30 31 27 27 31 30 27 26 24 24 22 22 21 20 20 20 20 20 19 19 18 17 17 16 15 14 13 14 15 17
18 18 19 20 21 22 21 21 22 23 24 26 27 30 31 32 33 29 27 25 24 23 23 22 21 20 20 21 21 20 19 18 18 19 19 18 17 16 15 15 14 15 16
19 20 20 20 22 23 21 23 24 26 28 29 31 33 33 32 31 30 29 28 25 24 24 23 21 21 20 20 20 20 20 20 20 19 19 19 18 16 15 14 13 14 15
Wind_Direction
171 169 158 147 140 135 129 132 135 103 86 84 87 98 101 99 102 107 105 102 100 93 83 78 72 71 65 57 53 52 44 35 16 70 25 1 4 359 357 359 350 351 347
177 169 163 165 170 165 168 174 171 175 165 153 129 125 120 114 120 125 119 113 110 104 95 88 80 79 71 64 66 60 53 37 22 357 359 359 2 355 354 352 347 349 343
181 181 189 195 196 190 195 199 194 193 193 187 176 166 156 145 137 132 132 125 114 100 91 85 79 79 73 67 66 62 52 45 28 8 352 353 355 351 353 348 348 344 346
198 203 207 207 205 208 210 207 204 200 196 187 171 156 146 139 141 135 132 122 113 113 112 104 90 79 78 78 70 60 52 55 34 21 5 353 356 352 354 351 342 342 343
204 207 214 218 215 213 212 208 204 192 182 178 169 165 160 156 159 152 145 134 128 118 104 90 86 84 81 95 87 63 57 56 40 24 17 357 357 356 356 342 335 335 350
202 215 214 215 214 215 211 205 199 189 182 177 170 161 158 166 177 158 151 143 140 136 124 107 93 78 79 83 78 71 73 70 56 35 25 10 358 352 346 342 337 348 341
208 211 212 214 214 211 209 204 197 188 181 175 172 164 159 166 169 161 156 150 149 146 144 137 120 109 114 91 84 73 64 61 65 58 43 19 352 350 340 338 339 337 320
210 214 217 215 214 211 205 203 196 189 185 181 179 173 170 173 177 174 157 148 144 143 145 142 128 118 133 134 120 88 69 50 51 55 49 12 351 344 341 331 330 329 330
214 217 221 218 216 214 209 205 200 191 185 181 180 175 173 177 184 177 159 151 148 141 139 137 132 123 121 126 130 160 112 56 23 22 11 353 346 349 350 348 358 353 336
222 225 227 223 220 218 216 206 201 194 186 176 176 185 184 177 188 186 174 166 156 144 142 142 126 123 106 131 143 130 103 32 13 3 359 351 346 349 358 5 356 347 339
231 228 226 224 220 219 214 207 201 188 176 175 177 182 181 192 184 188 188 184 190 180 170 157 143 133 121 108 107 101 91 40 6 6 1 346 344 345 344 349 347 337 320
233 233 229 224 218 212 207 201 196 182 176 181 179 180 191 180 185 183 182 194 197 195 178 170 169 149 146 127 102 93 64 29 6 358 349 337 338 333 333 340 337 326 308
243 239 234 225 216 210 204 195 183 183 180 180 186 183 184 181 176 209 182 177 178 186 189 173 162 153 146 133 111 47 22 360 350 351 338 321 322 326 334 331 334 329 324
247 237 229 219 211 209 201 199 187 183 183 186 188 183 180 180 179 190 180 169 164 165 159 169 174 184 202 225 267 335 334 330 331 320 305 310 323 329 335 329 331 334 332
242 235 224 218 205 195 196 194 195 201 196 190 194 187 181 185 192 196 199 185 178 182 185 179 183 203 217 238 266 285 300 310 313 300 303 311 322 323 324 321 326 329 317
237 230 216 201 194 192 190 192 207 209 205 206 212 216 211 214 196 190 193 190 189 182 189 195 204 211 213 233 244 269 283 285 282 290 300 308 311 312 314 326 323 318 312
227 216 204 194 194 189 190 186 184 201 208 205 202 212 215 200 186 186 188 190 189 186 197 202 209 216 222 232 240 251 255 267 275 287 291 293 297 307 316 316 312 310 314
230 217 205 198 194 191 191 189 184 180 185 191 197 192 192 188 184 183 184 181 184 204 210 216 217 224 229 238 246 248 253 261 275 280 282 287 293 299 301 301 303 306 312
221 207 201 198 195 194 191 188 186 185 182 175 177 185 186 185 186 191 194 196 197 216 226 223 229 236 240 243 245 249 256 262 265 271 279 284 286 286 289 292 300 305 308
218 207 200 195 191 189 186 184 185 184 178 175 178 180 182 182 191 196 201 205 206 218 230 233 237 240 243 247 251 256 261 263 264 268 273 273 276 280 286 294 298 301 307
207 200 198 190 188 187 186 185 184 181 181 183 187 189 196 188 193 197 203 214 217 227 229 237 240 247 250 251 253 255 258 261 266 268 268 270 274 278 288 293 296 303 306
198 193 191 190 187 186 188 186 184 185 186 184 185 194 196 198 198 201 209 223 228 232 238 242 246 253 258 257 258 257 260 264 264 265 267 269 271 279 287 293 297 302 306
195 188 188 189 189 188 187 187 186 187 188 189 189 198 194 201 204 211 219 226 231 236 240 243 248 253 257 260 261 261 262 266 270 268 268 270 273 277 282 289 294 298 303
194 192 190 190 189 189 191 190 191 192 191 191 195 209 205 201 214 225 231 236 239 241 244 246 248 252 256 260 260 261 263 266 268 269 268 266 269 273 276 281 290 296 301
199 197 195 195 194 193 194 193 194 194 194 199 202 211 215 217 222 227 235 238 239 240 245 249 251 255 257 259 260 261 263 262 263 264 265 266 267 268 273 281 288 292 296
207 205 204 202 202 202 196 194 196 199 202 207 213 219 221 223 227 232 237 240 241 243 248 252 257 261 260 259 259 259 259 260 261 261 260 262 264 267 271 278 286 291 298